SCP
1 1 1 1 1 1 1 1 1 1 1 1 1 1 1 1 0 0 0 0 0 0 0 0 0 0 0 0 0 0 0 0 0 0 0 0 0 0 0 0 0 0 0
1 1 1 1 1 1 1 1 1 1 1 1 1 1 1 1 0 0 0 0 0 0 0 0 0 0 0 0 0 0 0 0 0 0 0 0 0 0 0 0 0 0 0
1 1 1 1 1 1 1 1 1 1 1 1 1 1 1 0 0 0 0 0 0 0 0 0 0 0 0 0 0 0 0 0 0 0 0 0 0 0 0 0 0 0 0
1 1 1 1 1 1 1 1 1 1 1 1 1 1 1 0 0 0 0 0 0 0 0 0 0 0 0 0 0 0 0 0 0 0 0 0 0 0 0 0 0 0 0
1 1 1 1 1 1 1 1 2 2 1 1 1 1 0 0 0 0 0 0 0 0 0 0 0 0 0 0 0 0 0 0 0 0 0 0 0 0 0 0 0 0 0
1 1 1 1 1 1 1 1 2 1 1 1 1 0 0 0 0 0 0 0 0 0 0 0 0 0 0 0 0 0 0 0 0 0 0 0 0 0 0 0 0 0 0
1 1 1 1 1 1 1 1 1 1 1 1 1 0 0 0 0 0 0 0 0 0 0 0 0 0 0 0 0 0 0 0 0 0 0 0 0 0 0 0 0 0 0
1 1 1 1 1 1 1 1 1 1 1 1 1 0 0 0 0 0 0 0 0 0 0 0 0 0 0 0 0 0 0 0 0 0 0 0 0 0 0 0 0 0 0
1 1 1 1 1 1 1 1 1 1 1 1 1 0 0 1 1 0 0 0 0 0 0 0 0 0 0 0 0 0 0 0 0 0 0 0 0 0 0 0 0 0 0
1 1 1 1 1 1 1 1 1 1 1 1 1 0 1 1 1 0 0 0 0 0 0 0 0 0 0 0 0 0 0 0 0 0 0 0 0 0 0 0 0 0 0
2 2 2 2 1 1 1 1 1 1 0 0 1 1 1 1 0 0 0 0 0 0 0 0 0 0 0 0 0 0 0 0 0 0 0 0 0 0 0 0 0 0 0
3 3 3 2 2 1 1 1 1 1 1 1 1 1 1 1 0 0 0 0 0 0 0 0 0 0 0 0 0 0 0 0 0 0 0 0 0 0 0 0 0 0 0
4 4 3 3 2 2 1 1 1 1 1 1 1 1 1 1 0 0 0 0 0 0 0 0 0 0 0 0 0 0 0 0 0 0 0 0 0 0 0 0 0 0 0
4 4 3 3 3 2 2 1 1 1 1 1 1 1 1 1 1 0 0 0 0 0 0 0 0 0 0 0 0 0 0 0 0 0 0 0 0 0 0 0 0 0 0
4 4 3 3 2 2 2 1 1 1 1 1 1 1 1 1 1 1 1 0 0 1 1 0 0 0 0 0 0 0 0 0 0 0 0 0 0 0 0 0 0 0 0
4 4 3 3 2 2 2 1 1 1 1 1 1 1 1 1 1 1 1 1 1 1 1 1 0 0 0 0 0 0 0 0 0 0 0 0 0 0 0 0 0 0 0
4 4 3 2 2 2 2 1 1 1 1 1 1 1 1 1 1 1 1 1 1 1 1 1 0 0 0 0 0 0 0 0 0 0 0 0 0 0 0 0 0 0 0
4 4 3 2 2 2 2 2 1 1 1 1 1 1 1 1 1 1 1 1 1 1 1 1 1 0 0 0 0 0 0 0 0 0 0 0 0 0 0 0 0 0 0
4 3 3 3 2 2 3 3 2 2 1 1 1 1 1 1 1 1 1 1 1 1 0 1 1 1 0 0 0 0 0 0 0 0 0 0 0 0 0 0 0 0 0
4 3 3 3 3 3 4 4 3 2 2 1 1 1 1 1 1 1 1 1 1 1 1 1 1 1 0 0 0 0 0 0 0 0 0 0 0 0 0 0 0 0 0
3 3 4 4 4 4 4 4 3 3 2 2 1 1 1 1 1 1 1 1 1 1 1 1 1 1 1 0 0 0 0 0 0 0 0 0 0 0 0 0 0 0 0
3 3 4 4 4 4 3 3 3 3 3 3 2 1 1 1 1 1 1 1 1 1 1 1 1 1 0 0 0 0 0 0 0 0 0 0 0 0 0 0 0 0 0
3 3 4 4 4 4 3 3 3 3 3 2 2 1 1 1 1 1 1 1 1 1 1 1 1 1 0 0 0 0 0 0 0 0 0 0 0 0 0 0 0 0 0
3 3 4 4 4 4 4 3 4 5 4 3 2 1 1 1 1 1 1 1 1 1 1 1 1 1 1 0 0 0 0 0 0 0 0 0 0 0 0 0 0 0 0
4 4 4 4 4 4 4 4 5 6 5 4 3 2 2 2 1 1 1 1 1 1 1 1 1 1 1 1 1 0 0 0 0 0 0 0 0 0 0 0 0 0 0
4 4 5 5 4 4 4 5 5 6 6 5 3 2 2 2 1 1 1 1 1 1 1 1 1 1 1 1 1 1 1 0 0 0 0 0 0 0 0 0 0 0 0
Wind_Speed
12 14 14 13 13 14 14 14 14 15 15 15 15 15 15 15 15 15 16 16 15 15 16 16 15 15 15 14 14 15 15 15 14 14 14 14 13 13 12 12 12 13 15
15 16 15 14 14 14 14 14 15 15 15 15 15 14 14 14 15 15 15 15 15 15 15 15 15 15 15 14 14 14 14 14 14 14 14 14 13 11 10 9 10 12 14
16 17 16 14 14 14 14 14 15 15 15 15 14 14 14 14 14 14 14 14 15 15 15 15 15 15 14 14 14 13 13 13 12 11 10 11 13 12 12 13 14 13 13
17 16 15 16 15 15 14 14 14 14 14 14 14 14 14 13 14 14 14 14 14 14 15 14 15 14 14 14 13 13 13 12 10 8 7 10 12 13 12 13 13 12 13
16 16 17 16 15 15 14 14 14 14 14 14 14 13 13 13 13 14 14 14 14 14 14 14 14 14 13 13 13 13 12 10 6 4 10 9 11 12 12 13 13 13 12
16 16 18 15 15 15 14 14 14 14 13 13 13 13 13 13 13 13 13 13 14 13 14 13 14 13 12 13 13 12 11 7 6 9 8 9 11 12 12 12 12 12 12
16 16 18 15 15 14 14 14 13 13 13 13 13 13 13 13 13 13 13 13 13 13 13 13 12 12 12 12 11 11 8 3 5 9 8 9 11 11 12 12 12 12 12
15 16 17 16 15 14 13 13 13 13 13 13 12 12 13 13 13 13 13 13 13 12 12 12 11 11 11 11 11 10 7 3 8 8 9 10 11 11 12 12 12 11 11
15 15 16 16 14 13 12 12 12 12 12 12 12 12 12 13 13 13 12 12 12 12 11 11 10 10 10 10 10 9 6 2 5 6 9 9 10 10 11 11 11 11 11
13 14 14 14 13 13 13 12 12 12 12 12 12 12 12 13 13 12 12 12 12 11 11 10 10 10 10 10 9 9 7 5 6 7 7 10 10 10 10 10 10 10 11
13 12 13 13 12 11 12 13 12 12 11 11 11 11 10 9 11 10 12 11 11 11 10 10 9 9 9 10 9 8 7 3 6 6 7 11 9 9 9 9 10 10 10
15 14 11 12 11 11 9 10 8 9 9 7 8 9 6 6 5 9 12 10 10 10 10 8 8 8 7 7 9 9 3 5 6 6 8 10 8 9 9 9 9 9 9
15 14 12 11 10 9 7 8 5 5 6 7 8 7 6 6 6 7 6 8 8 9 7 8 7 4 4 4 3 4 4 4 4 5 9 8 8 9 9 8 8 8 8
15 15 13 12 10 8 7 7 6 6 5 6 7 7 6 4 4 5 4 5 5 4 3 3 3 4 4 4 4 4 4 3 4 5 8 8 7 8 8 8 8 8 8
15 15 13 12 11 9 7 6 6 6 6 6 6 6 5 5 5 5 4 3 3 4 5 3 3 4 3 3 3 4 4 4 4 5 7 8 7 6 7 7 7 7 7
16 15 14 13 12 10 8 6 6 6 5 5 5 6 6 5 5 5 5 3 3 3 2 2 4 3 3 3 3 3 3 4 4 4 6 9 8 6 6 6 6 7 7
16 15 14 13 13 11 10 9 7 6 7 6 5 6 6 5 5 5 4 4 3 3 4 3 3 3 3 3 3 3 3 3 4 4 4 4 7 8 6 6 5 6 6
15 15 15 12 13 12 9 8 6 6 7 6 6 6 7 6 6 5 4 4 3 4 4 3 3 2 2 2 2 2 3 3 3 4 4 4 3 5 8 7 6 6 6
15 15 15 14 14 12 10 8 7 6 6 6 6 5 6 7 7 5 4 3 4 3 3 3 3 2 2 2 3 3 2 3 3 3 3 4 3 3 4 9 8 6 6
14 14 14 14 13 12 9 7 6 7 7 6 5 5 6 6 7 6 5 5 5 3 3 2 2 2 1 2 1 3 2 2 2 2 3 4 4 4 4 5 6 7 7
15 15 15 14 13 11 9 9 9 8 7 7 6 7 7 7 7 6 5 5 5 4 4 4 4 4 3 2 2 3 3 3 2 2 2 2 4 4 3 3 3 3 6
16 16 15 14 14 13 9 8 7 7 7 6 6 6 8 8 8 7 6 6 5 4 5 4 4 3 3 3 2 2 3 3 4 3 3 3 3 3 4 4 3 3 2
16 16 15 16 15 14 12 8 7 6 6 6 7 7 8 9 8 7 7 6 5 6 5 6 5 5 4 4 3 3 2 1 2 3 3 3 3 3 3 4 5 4 4
16 15 15 15 14 14 13 11 13 10 9 8 7 7 9 9 9 8 7 7 6 6 5 7 6 5 5 4 4 3 3 2 2 2 4 4 4 4 3 3 4 4 4
15 14 14 15 14 14 14 14 13 11 9 7 8 9 9 9 9 9 8 7 7 6 6 5 5 6 5 5 4 3 3 3 4 3 2 3 4 4 4 4 3 3 4
14 14 14 15 15 15 15 15 14 13 11 10 10 9 9 8 8 9 9 7 7 6 6 6 6 7 6 4 4 3 3 4 4 3 3 4 3 3 4 2 3 3 4
Wind_Direction
141 130 132 129 123 118 117 117 117 118 116 114 110 108 106 104 102 101 102 104 105 105 104 105 105 105 105 107 108 109 109 108 107 107 106 105 106 108 112 120 128 108 108
138 131 134 131 126 121 118 117 117 118 117 115 112 109 108 106 105 103 103 104 106 106 106 106 106 105 105 106 108 109 110 110 110 113 117 113 108 107 107 99 84 102 112
137 133 138 132 128 124 122 119 118 118 117 116 114 111 109 108 107 107 105 103 105 107 108 107 107 106 105 105 106 107 108 110 114 129 148 123 112 107 104 100 100 110 110
137 138 137 132 130 127 125 123 121 119 118 117 115 113 111 109 109 108 107 106 106 107 108 108 108 106 106 105 105 106 107 109 122 166 134 108 110 108 108 108 110 111 110
138 135 129 137 133 131 128 124 122 121 120 119 118 116 113 110 108 108 109 108 107 107 107 108 108 106 106 106 106 106 107 113 145 142 93 97 101 110 111 110 111 110 109
142 137 132 140 135 134 131 127 124 123 121 120 119 117 115 113 111 109 108 109 108 107 107 107 108 107 107 108 108 108 112 138 174 95 100 101 102 109 111 111 110 108 106
143 136 136 142 138 137 134 132 129 126 123 121 119 118 116 114 112 110 109 109 109 109 109 108 109 109 109 112 113 114 117 173 103 98 96 94 97 104 108 110 111 110 109
143 138 135 142 141 139 137 134 130 128 126 123 121 119 117 114 112 112 111 110 109 109 109 110 110 111 112 114 116 120 134 206 111 105 102 98 101 108 110 111 109 111 113
147 140 144 147 146 143 140 137 133 131 128 125 122 120 118 114 112 112 111 111 110 110 109 110 112 112 113 117 119 123 127 276 111 109 106 101 110 114 115 116 114 113 112
150 147 149 149 150 153 147 141 137 134 131 127 125 124 123 121 119 121 120 111 111 111 111 109 108 110 112 115 118 126 150 211 112 112 104 106 117 119 119 119 119 119 117
157 154 153 151 157 158 150 143 148 143 138 140 136 135 152 144 132 140 107 116 116 114 113 112 111 115 125 125 125 145 184 149 109 97 93 107 124 122 121 122 125 125 123
164 162 160 156 162 161 150 150 158 154 150 159 141 149 148 121 122 113 116 121 120 121 122 119 128 156 184 141 144 186 159 125 121 113 102 118 126 128 126 126 127 127 127
167 166 162 159 167 162 155 159 158 150 151 153 144 148 136 140 138 133 140 141 142 153 146 144 173 151 119 98 130 126 108 113 105 107 111 127 130 135 136 135 134 133 133
172 171 164 162 167 171 166 159 163 159 159 157 150 162 151 148 148 137 145 141 150 143 132 146 132 109 104 115 110 107 123 112 103 97 114 130 133 138 143 145 142 144 143
174 172 167 168 168 171 168 174 170 164 163 152 155 160 160 155 155 142 135 141 149 137 152 151 127 121 123 124 124 113 100 96 108 113 118 134 138 142 148 151 153 156 154
177 175 171 176 172 172 173 178 170 169 164 162 165 158 175 161 149 151 153 158 146 148 127 143 134 147 142 118 127 120 124 122 118 127 128 140 148 153 157 157 163 165 162
179 175 176 178 175 177 180 183 177 173 173 174 163 163 177 170 157 168 157 171 152 141 144 166 148 159 159 146 133 131 127 118 124 127 131 142 151 159 161 163 169 173 169
179 176 179 181 179 181 183 188 183 181 175 179 172 167 178 174 173 184 173 172 157 173 171 157 185 174 143 152 142 139 122 125 138 148 153 159 152 148 159 163 168 174 176
181 178 181 184 181 183 182 185 188 180 184 185 178 175 174 182 181 194 188 157 183 183 184 196 152 182 156 160 159 146 146 143 155 153 145 150 151 163 153 149 161 171 180
182 181 184 185 183 182 182 183 187 186 186 190 180 178 181 187 190 199 190 176 199 189 190 192 152 182 180 199 189 124 154 145 167 150 178 156 162 176 172 154 165 165 168
184 184 186 188 183 183 183 186 188 187 186 185 185 180 191 200 192 205 205 175 206 198 202 195 192 180 187 175 180 171 160 158 160 174 179 173 162 162 156 171 180 157 164
187 186 187 189 186 188 187 190 194 190 188 184 186 179 197 202 201 199 206 200 198 194 197 204 207 205 192 188 220 209 186 165 187 168 168 178 163 167 174 173 151 175 193
190 190 188 187 186 189 185 186 186 183 190 186 189 188 201 204 207 213 200 213 200 210 193 203 203 208 206 195 223 253 249 190 161 157 168 161 166 177 187 166 174 168 184
193 189 188 186 187 188 186 192 191 193 195 193 191 190 194 202 205 204 208 209 211 217 197 209 202 212 217 211 192 238 283 341 258 169 172 160 170 187 194 188 162 167 179
191 189 188 187 190 190 193 196 198 201 200 192 193 191 197 196 204 205 205 208 210 219 212 220 199 223 219 227 214 204 209 216 241 237 188 174 181 184 180 188 184 175 170
188 189 187 189 192 191 195 199 202 202 200 196 196 194 197 194 198 203 206 207 212 216 210 212 213 215 230 229 242 231 218 224 227 223 212 205 188 174 178 187 200 187 185